Weather History for Chamberlain, SD

Change the Weather History Date:

Thursday, April 10, 2014

  Actual Average Record
Temperature  
Mean Temperature 54 °F -  
Max Temperature 68 °F 53 °F 84 °F (2006)
Min Temperature 42 °F 31 °F 18 °F (1997)
Degree Days  
Heating Degree Days 11    
Growing Degree Days 4 (Base 50)    
Moisture  
Dew Point 27 °F    
Average Humidity 40    
Maximum Humidity 76    
Minimum Humidity 15    
Precipitation  
Precipitation 0.00 in - - ()
Sea Level Pressure  
Sea Level Pressure 29.91 in    
Wind  
Wind Speed 9 mph (NW)    
Max Wind Speed 16 mph    
Max Gust Speed 23 mph    
Averages and records for this station are not official NWS values.
T = Trace of Precipitation, MM = Missing Value Source: NWS Daily Summary

Daily Weather History Graph

Daily Weather History Graph

Search for Another Location

Airport:

Trip Planner

Search our weather history database for the weather conditions in past years. The results will help you decide how hot, cold, wet, or windy it might be!

Date:

Astronomy

Apr. 10, 2014 Rise Set
Actual Time 7:02 AM CDT 8:15 PM CDT
Civil Twilight 6:33 AM CDT 8:44 PM CDT
Nautical Twilight 5:57 AM CDT 9:20 PM CDT
Astronomical Twilight 5:20 AM CDT 9:57 PM CDT
Moon 3:52 PM CDT (4/10) 4:35 AM CDT (4/10)
Length of Visible Light 14h 11m
Length of Day
13h 12m
Waxing Gibbous, 80% of the Moon is Illuminated
Apr 10
Waxing Gibbous
Apr 15
Full
Apr 22
Last Quarter
Apr 29
New
May 6
First Quarter

Hourly Weather History & Observations

Time (CDT) Temp. Windchill Dew Point Humidity Pressure Visibility Wind Dir Wind Speed Gust Speed Precip Events Conditions
12:52 AM 55.0 °F - 37.9 °F 53% 29.77 in - North 10.4 mph - N/A   Unknown
1:52 AM 53.1 °F - 37.0 °F 55% 29.80 in - North 9.2 mph - N/A   Unknown
2:52 AM 51.1 °F - 36.0 °F 56% 29.83 in - North 6.9 mph - N/A   Unknown
3:52 AM 50.0 °F - 37.0 °F 61% 29.84 in - North 6.9 mph - N/A   Unknown
4:52 AM 45.0 °F 40.6 °F 36.0 °F 71% 29.87 in - NW 8.1 mph - N/A   Unknown
5:52 AM 43.0 °F 38.8 °F 34.0 °F 71% 29.89 in - NW 6.9 mph - N/A   Unknown
6:52 AM 42.1 °F 37.7 °F 35.1 °F 76% 29.91 in - NW 6.9 mph - N/A   Unknown
7:52 AM 44.1 °F 39.5 °F 35.1 °F 71% 29.93 in - NW 8.1 mph - N/A   Unknown
8:52 AM 48.9 °F - 36.0 °F 61% 29.95 in - West 8.1 mph - N/A   Unknown
9:52 AM 52.0 °F - 36.0 °F 54% 29.96 in - West 5.8 mph - N/A   Unknown
10:52 AM 57.9 °F - 33.1 °F 39% 29.97 in - NW 11.5 mph - N/A   Unknown
11:52 AM 61.0 °F - 28.0 °F 29% 29.98 in - NW 10.4 mph - N/A   Unknown
12:52 PM 63.0 °F - 19.9 °F 19% 29.97 in - NNW 16.1 mph 23.0 mph N/A   Unknown
1:52 PM 64.0 °F - 18.0 °F 17% 29.96 in - NW 13.8 mph 21.9 mph N/A   Unknown
2:52 PM 64.9 °F - 16.0 °F 15% 29.94 in - NW 13.8 mph 18.4 mph N/A   Unknown
3:52 PM 66.0 °F - 17.1 °F 15% 29.92 in - West 12.7 mph 18.4 mph N/A   Unknown
4:52 PM 63.0 °F - 16.0 °F 16% 29.93 in - NW 8.1 mph 17.3 mph N/A   Unknown
5:52 PM 64.0 °F - 16.0 °F 16% 29.92 in - NW 5.8 mph - N/A   Unknown
6:52 PM 62.1 °F - 19.9 °F 20% 29.92 in - Calm Calm - N/A   Unknown
7:52 PM 59.0 °F - 18.0 °F 20% 29.91 in - Calm Calm - N/A   Unknown
8:52 PM 55.0 °F - 21.9 °F 28% 29.92 in - SSE 4.6 mph - N/A   Unknown
9:52 PM 50.0 °F - 24.1 °F 36% 29.94 in - South 9.2 mph - N/A   Unknown
10:52 PM 51.1 °F - 23.0 °F 33% 29.92 in - SSW 6.9 mph - N/A   Unknown
11:52 PM 46.9 °F - 23.0 °F 39% 29.91 in - SSW 12.7 mph - N/A   Unknown